QPF
0.03 0.03 0.03 0.06 0.13 0.19 0.15 0.12 0.11 0.12 0.12 0.05 0.01 0.01 0.01 0.01 0.01 0.01 0.01 0.01 0.00 0.02 0.02 0.03 0.03 0.03 0.04 0.05 0.04 0.03 0.03 0.04 0.04 0.03 0.02 0.02 0.01 0.03 0.03 0.02 0.03 0.03 0.03
0.03 0.03 0.02 0.04 0.10 0.13 0.12 0.10 0.12 0.14 0.13 0.05 0.02 0.01 0.01 0.01 0.00 0.00 0.01 0.00 0.00 0.00 0.01 0.01 0.01 0.02 0.03 0.04 0.04 0.03 0.03 0.02 0.03 0.03 0.02 0.02 0.01 0.01 0.02 0.04 0.04 0.03 0.02
0.02 0.02 0.01 0.02 0.04 0.08 0.11 0.12 0.11 0.09 0.06 0.04 0.02 0.01 0.01 0.01 0.01 0.00 0.00 0.00 0.00 0.01 0.01 0.01 0.01 0.02 0.03 0.03 0.03 0.02 0.02 0.02 0.04 0.04 0.04 0.03 0.01 0.01 0.02 0.03 0.04 0.04 0.06
0.03 0.03 0.02 0.01 0.02 0.02 0.06 0.08 0.06 0.04 0.04 0.04 0.03 0.01 0.01 0.01 0.01 0.00 0.00 0.01 0.01 0.01 0.01 0.01 0.01 0.01 0.01 0.02 0.02 0.02 0.02 0.03 0.03 0.04 0.04 0.04 0.04 0.03 0.01 0.01 0.02 0.03 0.04
0.05 0.03 0.02 0.02 0.02 0.02 0.01 0.02 0.03 0.02 0.03 0.04 0.04 0.02 0.02 0.01 0.01 0.01 0.01 0.01 0.01 0.00 0.01 0.01 0.02 0.01 0.02 0.02 0.02 0.03 0.03 0.04 0.04 0.03 0.03 0.04 0.04 0.03 0.02 0.01 0.01 0.01 0.01
0.06 0.03 0.03 0.03 0.03 0.02 0.02 0.02 0.02 0.02 0.05 0.05 0.04 0.03 0.02 0.02 0.02 0.01 0.01 0.01 0.01 0.00 0.01 0.03 0.04 0.02 0.03 0.03 0.03 0.04 0.03 0.02 0.03 0.03 0.04 0.04 0.04 0.03 0.03 0.02 0.01 0.01 0.01
0.05 0.04 0.04 0.04 0.03 0.03 0.03 0.03 0.04 0.03 0.06 0.09 0.05 0.02 0.02 0.02 0.02 0.01 0.01 0.01 0.01 0.01 0.02 0.03 0.03 0.03 0.04 0.04 0.04 0.04 0.02 0.02 0.02 0.02 0.02 0.02 0.02 0.03 0.03 0.03 0.03 0.03 0.02
0.06 0.04 0.05 0.04 0.03 0.03 0.02 0.02 0.03 0.04 0.04 0.07 0.08 0.05 0.02 0.01 0.01 0.01 0.01 0.02 0.02 0.02 0.02 0.03 0.02 0.02 0.03 0.03 0.04 0.03 0.02 0.03 0.03 0.03 0.02 0.02 0.02 0.02 0.03 0.04 0.04 0.03 0.03
0.06 0.03 0.03 0.03 0.03 0.02 0.02 0.02 0.01 0.02 0.02 0.04 0.06 0.06 0.03 0.02 0.01 0.01 0.01 0.01 0.01 0.02 0.03 0.04 0.04 0.03 0.02 0.02 0.02 0.02 0.02 0.02 0.01 0.01 0.02 0.02 0.02 0.03 0.03 0.03 0.03 0.03 0.05
0.04 0.03 0.03 0.05 0.05 0.03 0.02 0.02 0.01 0.01 0.01 0.01 0.03 0.04 0.04 0.02 0.01 0.01 0.01 0.01 0.01 0.02 0.03 0.03 0.03 0.03 0.02 0.02 0.02 0.02 0.02 0.02 0.01 0.01 0.01 0.01 0.02 0.02 0.03 0.03 0.03 0.03 0.03
0.04 0.04 0.03 0.03 0.04 0.03 0.02 0.01 0.01 0.01 0.00 0.01 0.01 0.01 0.02 0.01 0.01 0.01 0.01 0.01 0.00 0.00 0.01 0.01 0.01 0.01 0.01 0.01 0.01 0.01 0.01 0.01 0.01 0.02 0.01 0.01 0.01 0.01 0.02 0.03 0.03 0.05 0.05
0.04 0.03 0.02 0.02 0.03 0.05 0.06 0.04 0.02 0.01 0.01 0.01 0.01 0.00 0.01 0.01 0.00 0.00 0.00 0.00 0.00 0.00 0.00 0.00 0.00 0.00 0.00 0.00 0.00 0.01 0.01 0.01 0.01 0.01 0.01 0.01 0.02 0.01 0.02 0.02 0.03 0.04 0.03
0.04 0.02 0.03 0.03 0.03 0.04 0.07 0.09 0.08 0.05 0.02 0.01 0.01 0.01 0.01 0.00 0.01 0.00 0.01 0.00 0.00 0.00 0.01 0.00 0.00 0.00 0.00 0.00 0.00 0.01 0.01 0.01 0.01 0.01 0.01 0.01 0.02 0.02 0.02 0.02 0.02 0.03 0.02
0.03 0.04 0.05 0.06 0.04 0.03 0.05 0.06 0.07 0.05 0.03 0.02 0.01 0.01 0.01 0.01 0.01 0.00 0.01 0.01 0.01 0.01 0.01 0.02 0.02 0.01 0.01 0.01 0.01 0.01 0.01 0.01 0.01 0.01 0.01 0.02 0.01 0.02 0.02 0.02 0.02 0.02 0.03
0.03 0.05 0.05 0.07 0.07 0.04 0.05 0.06 0.07 0.04 0.03 0.03 0.02 0.01 0.01 0.01 0.01 0.01 0.01 0.02 0.02 0.02 0.03 0.03 0.03 0.02 0.02 0.01 0.01 0.01 0.01 0.01 0.01 0.01 0.01 0.02 0.02 0.02 0.02 0.02 0.03 0.03 0.04
0.03 0.05 0.06 0.05 0.04 0.03 0.04 0.09 0.13 0.09 0.05 0.04 0.02 0.02 0.02 0.03 0.04 0.04 0.03 0.03 0.03 0.03 0.03 0.04 0.04 0.03 0.01 0.01 0.01 0.01 0.02 0.01 0.01 0.01 0.01 0.02 0.02 0.02 0.03 0.03 0.03 0.03 0.04
0.03 0.06 0.09 0.07 0.07 0.03 0.04 0.08 0.13 0.14 0.09 0.05 0.04 0.03 0.03 0.04 0.05 0.05 0.04 0.03 0.02 0.02 0.03 0.03 0.03 0.02 0.02 0.02 0.02 0.01 0.01 0.01 0.01 0.01 0.01 0.01 0.02 0.03 0.04 0.04 0.03 0.02 0.03
0.03 0.06 0.11 0.07 0.07 0.08 0.06 0.08 0.12 0.12 0.12 0.08 0.05 0.05 0.04 0.04 0.04 0.04 0.04 0.04 0.04 0.04 0.04 0.03 0.02 0.02 0.02 0.02 0.02 0.02 0.02 0.02 0.01 0.01 0.01 0.01 0.01 0.03 0.04 0.05 0.03 0.01 0.02
0.05 0.07 0.09 0.09 0.06 0.07 0.09 0.09 0.11 0.09 0.10 0.09 0.07 0.07 0.06 0.05 0.05 0.05 0.05 0.05 0.06 0.06 0.05 0.03 0.03 0.02 0.02 0.02 0.02 0.03 0.03 0.02 0.02 0.02 0.01 0.01 0.01 0.02 0.04 0.04 0.03 0.02 0.02
0.05 0.05 0.06 0.08 0.06 0.05 0.06 0.09 0.09 0.09 0.10 0.10 0.07 0.07 0.09 0.08 0.06 0.04 0.04 0.05 0.06 0.07 0.06 0.05 0.05 0.04 0.03 0.03 0.03 0.03 0.03 0.02 0.02 0.01 0.01 0.01 0.01 0.02 0.02 0.02 0.03 0.03 0.02
0.04 0.04 0.05 0.05 0.04 0.05 0.06 0.06 0.07 0.09 0.09 0.09 0.08 0.07 0.08 0.08 0.06 0.05 0.05 0.06 0.07 0.07 0.08 0.07 0.06 0.05 0.05 0.04 0.04 0.05 0.05 0.04 0.04 0.03 0.02 0.02 0.02 0.03 0.03 0.03 0.03 0.04 0.05
0.05 0.04 0.05 0.05 0.04 0.05 0.07 0.07 0.07 0.07 0.08 0.07 0.09 0.10 0.09 0.08 0.07 0.07 0.06 0.06 0.06 0.06 0.06 0.06 0.07 0.07 0.06 0.05 0.06 0.06 0.06 0.05 0.04 0.03 0.03 0.03 0.04 0.05 0.05 0.06 0.06 0.07 0.07
0.10 0.09 0.10 0.09 0.07 0.07 0.06 0.07 0.06 0.08 0.08 0.07 0.08 0.09 0.10 0.10 0.09 0.08 0.07 0.06 0.06 0.07 0.07 0.07 0.07 0.06 0.05 0.03 0.02 0.03 0.03 0.03 0.02 0.02 0.03 0.02 0.03 0.03 0.03 0.03 0.04 0.05 0.04
0.08 0.10 0.10 0.09 0.05 0.04 0.04 0.05 0.04 0.03 0.04 0.04 0.05 0.07 0.08 0.09 0.09 0.08 0.07 0.05 0.04 0.04 0.04 0.05 0.04 0.03 0.03 0.02 0.01 0.01 0.02 0.02 0.02 0.02 0.03 0.02 0.02 0.02 0.03 0.03 0.02 0.02 0.03
0.03 0.02 0.02 0.02 0.02 0.02 0.03 0.02 0.03 0.02 0.02 0.02 0.03 0.04 0.05 0.06 0.07 0.07 0.06 0.05 0.04 0.03 0.03 0.03 0.04 0.04 0.03 0.02 0.01 0.01 0.02 0.03 0.03 0.03 0.02 0.02 0.02 0.02 0.02 0.02 0.02 0.02 0.02
0.02 0.02 0.02 0.02 0.02 0.03 0.03 0.03 0.03 0.03 0.02 0.02 0.02 0.03 0.04 0.04 0.04 0.05 0.05 0.05 0.03 0.03 0.03 0.04 0.04 0.04 0.03 0.02 0.03 0.03 0.03 0.04 0.05 0.03 0.03 0.02 0.02 0.01 0.01 0.01 0.01 0.01 0.02
MSLP
1007.59 1008.10 1008.55 1008.91 1009.19 1009.43 1009.64 1009.87 1010.14 1010.46 1010.81 1011.18 1011.53 1011.82 1012.03 1012.15 1012.19 1012.17 1012.12 1012.09 1012.09 1012.16 1012.30 1012.50 1012.75 1013.02 1013.30 1013.56 1013.80 1014.01 1014.19 1014.34 1014.48 1014.60 1014.70 1014.77 1014.82 1014.84 1014.84 1014.83 1014.82 1014.83 1014.86
1007.91 1008.49 1008.96 1009.30 1009.53 1009.69 1009.82 1009.98 1010.22 1010.54 1010.94 1011.39 1011.82 1012.20 1012.48 1012.64 1012.69 1012.64 1012.55 1012.46 1012.42 1012.46 1012.58 1012.79 1013.06 1013.36 1013.67 1013.95 1014.19 1014.39 1014.56 1014.71 1014.84 1014.97 1015.10 1015.22 1015.33 1015.42 1015.48 1015.53 1015.56 1015.58 1015.60
1008.10 1008.76 1009.28 1009.63 1009.83 1009.93 1010.00 1010.10 1010.30 1010.61 1011.03 1011.52 1012.03 1012.48 1012.83 1013.04 1013.12 1013.08 1012.98 1012.88 1012.81 1012.83 1012.95 1013.17 1013.45 1013.76 1014.07 1014.35 1014.58 1014.77 1014.92 1015.06 1015.20 1015.35 1015.52 1015.70 1015.87 1016.03 1016.17 1016.27 1016.33 1016.36 1016.37
1008.15 1008.89 1009.47 1009.87 1010.08 1010.16 1010.19 1010.25 1010.40 1010.68 1011.10 1011.61 1012.15 1012.65 1013.06 1013.33 1013.45 1013.45 1013.38 1013.29 1013.24 1013.26 1013.38 1013.60 1013.88 1014.19 1014.50 1014.76 1014.98 1015.14 1015.27 1015.40 1015.54 1015.71 1015.91 1016.14 1016.38 1016.61 1016.80 1016.95 1017.04 1017.07 1017.06
1008.01 1008.85 1009.53 1010.01 1010.27 1010.38 1010.40 1010.43 1010.54 1010.79 1011.17 1011.66 1012.20 1012.73 1013.17 1013.49 1013.67 1013.73 1013.71 1013.66 1013.64 1013.70 1013.83 1014.06 1014.34 1014.64 1014.92 1015.15 1015.34 1015.48 1015.59 1015.69 1015.83 1016.01 1016.24 1016.50 1016.79 1017.07 1017.31 1017.49 1017.60 1017.63 1017.59
1007.68 1008.64 1009.44 1010.03 1010.39 1010.57 1010.62 1010.65 1010.74 1010.93 1011.27 1011.71 1012.22 1012.74 1013.19 1013.55 1013.78 1013.90 1013.95 1013.96 1014.00 1014.09 1014.26 1014.49 1014.76 1015.04 1015.29 1015.50 1015.65 1015.75 1015.83 1015.92 1016.04 1016.22 1016.46 1016.75 1017.06 1017.37 1017.63 1017.83 1017.95 1017.98 1017.92
1007.17 1008.24 1009.18 1009.92 1010.42 1010.70 1010.83 1010.89 1010.97 1011.13 1011.40 1011.78 1012.23 1012.71 1013.16 1013.52 1013.79 1013.97 1014.08 1014.17 1014.27 1014.40 1014.60 1014.84 1015.11 1015.37 1015.59 1015.76 1015.88 1015.95 1016.00 1016.07 1016.18 1016.35 1016.58 1016.87 1017.18 1017.50 1017.77 1017.98 1018.10 1018.12 1018.05
1006.49 1007.67 1008.76 1009.65 1010.31 1010.73 1010.97 1011.10 1011.19 1011.33 1011.55 1011.86 1012.25 1012.67 1013.08 1013.44 1013.73 1013.95 1014.12 1014.27 1014.42 1014.61 1014.83 1015.08 1015.34 1015.59 1015.79 1015.94 1016.03 1016.08 1016.11 1016.16 1016.25 1016.40 1016.62 1016.89 1017.20 1017.50 1017.76 1017.97 1018.09 1018.11 1018.04
1005.69 1006.97 1008.18 1009.24 1010.06 1010.63 1011.00 1011.22 1011.36 1011.50 1011.69 1011.95 1012.27 1012.62 1012.98 1013.32 1013.61 1013.86 1014.07 1014.26 1014.46 1014.68 1014.93 1015.19 1015.46 1015.69 1015.88 1016.02 1016.10 1016.14 1016.17 1016.22 1016.30 1016.43 1016.63 1016.88 1017.16 1017.44 1017.68 1017.88 1017.99 1018.03 1017.98
1004.87 1006.20 1007.52 1008.69 1009.66 1010.38 1010.88 1011.21 1011.43 1011.60 1011.79 1012.01 1012.28 1012.58 1012.89 1013.19 1013.46 1013.71 1013.94 1014.16 1014.39 1014.64 1014.91 1015.18 1015.44 1015.68 1015.88 1016.02 1016.11 1016.17 1016.22 1016.27 1016.35 1016.48 1016.66 1016.88 1017.13 1017.38 1017.60 1017.78 1017.90 1017.95 1017.92
1004.14 1005.48 1006.83 1008.08 1009.15 1009.99 1010.61 1011.06 1011.36 1011.60 1011.81 1012.03 1012.27 1012.53 1012.80 1013.06 1013.31 1013.54 1013.77 1014.00 1014.24 1014.50 1014.77 1015.06 1015.33 1015.58 1015.79 1015.96 1016.09 1016.18 1016.26 1016.34 1016.44 1016.57 1016.74 1016.94 1017.15 1017.37 1017.57 1017.74 1017.85 1017.92 1017.92
1003.64 1004.92 1006.24 1007.49 1008.59 1009.51 1010.23 1010.78 1011.18 1011.50 1011.77 1012.02 1012.26 1012.50 1012.73 1012.96 1013.18 1013.39 1013.59 1013.81 1014.04 1014.30 1014.57 1014.86 1015.14 1015.41 1015.65 1015.86 1016.03 1016.17 1016.29 1016.41 1016.54 1016.68 1016.84 1017.03 1017.21 1017.40 1017.58 1017.73 1017.85 1017.93 1017.96
1003.45 1004.61 1005.82 1006.99 1008.07 1009.00 1009.78 1010.41 1010.91 1011.32 1011.67 1011.97 1012.25 1012.49 1012.72 1012.92 1013.10 1013.28 1013.45 1013.64 1013.84 1014.08 1014.34 1014.62 1014.91 1015.20 1015.47 1015.71 1015.93 1016.12 1016.30 1016.46 1016.61 1016.77 1016.94 1017.10 1017.27 1017.43 1017.58 1017.72 1017.83 1017.93 1018.00
1003.60 1004.58 1005.61 1006.65 1007.63 1008.52 1009.32 1010.00 1010.59 1011.10 1011.54 1011.92 1012.25 1012.52 1012.75 1012.94 1013.10 1013.23 1013.37 1013.52 1013.69 1013.89 1014.13 1014.39 1014.68 1014.97 1015.26 1015.54 1015.79 1016.03 1016.24 1016.43 1016.62 1016.78 1016.95 1017.10 1017.25 1017.38 1017.51 1017.64 1017.75 1017.86 1017.95
1004.06 1004.80 1005.62 1006.46 1007.29 1008.10 1008.87 1009.59 1010.25 1010.85 1011.39 1011.86 1012.26 1012.58 1012.84 1013.02 1013.16 1013.27 1013.36 1013.47 1013.59 1013.76 1013.96 1014.20 1014.47 1014.75 1015.04 1015.33 1015.60 1015.86 1016.09 1016.30 1016.50 1016.67 1016.83 1016.97 1017.10 1017.21 1017.32 1017.43 1017.54 1017.66 1017.77
1004.71 1005.20 1005.76 1006.38 1007.04 1007.74 1008.45 1009.18 1009.89 1010.57 1011.21 1011.77 1012.25 1012.63 1012.92 1013.13 1013.26 1013.35 1013.41 1013.48 1013.57 1013.69 1013.86 1014.06 1014.30 1014.56 1014.83 1015.10 1015.36 1015.61 1015.84 1016.05 1016.24 1016.41 1016.55 1016.68 1016.79 1016.89 1016.98 1017.08 1017.19 1017.31 1017.43
1005.41 1005.64 1005.95 1006.34 1006.82 1007.39 1008.04 1008.75 1009.50 1010.24 1010.96 1011.61 1012.17 1012.62 1012.96 1013.19 1013.33 1013.42 1013.47 1013.52 1013.58 1013.67 1013.80 1013.97 1014.17 1014.39 1014.62 1014.86 1015.09 1015.30 1015.51 1015.70 1015.87 1016.02 1016.15 1016.26 1016.35 1016.44 1016.52 1016.61 1016.71 1016.83 1016.97
1006.01 1006.01 1006.09 1006.27 1006.58 1007.03 1007.60 1008.28 1009.03 1009.82 1010.60 1011.32 1011.94 1012.46 1012.85 1013.12 1013.30 1013.41 1013.47 1013.52 1013.58 1013.66 1013.77 1013.91 1014.07 1014.25 1014.43 1014.62 1014.80 1014.97 1015.13 1015.28 1015.42 1015.54 1015.66 1015.75 1015.84 1015.92 1016.00 1016.08 1016.18 1016.30 1016.44
1006.41 1006.23 1006.13 1006.14 1006.30 1006.62 1007.11 1007.75 1008.49 1009.29 1010.10 1010.86 1011.53 1012.10 1012.54 1012.87 1013.09 1013.24 1013.34 1013.42 1013.50 1013.59 1013.71 1013.83 1013.97 1014.11 1014.26 1014.39 1014.52 1014.64 1014.75 1014.86 1014.96 1015.06 1015.16 1015.25 1015.33 1015.41 1015.49 1015.58 1015.68 1015.79 1015.93
1006.61 1006.30 1006.06 1005.95 1005.99 1006.21 1006.62 1007.19 1007.89 1008.66 1009.46 1010.23 1010.92 1011.52 1012.00 1012.38 1012.66 1012.87 1013.03 1013.17 1013.30 1013.43 1013.57 1013.71 1013.84 1013.96 1014.07 1014.17 1014.25 1014.33 1014.40 1014.47 1014.55 1014.63 1014.72 1014.81 1014.90 1014.98 1015.07 1015.17 1015.27 1015.38 1015.50
1006.67 1006.29 1005.97 1005.77 1005.72 1005.85 1006.17 1006.66 1007.28 1007.99 1008.74 1009.47 1010.15 1010.75 1011.26 1011.67 1012.01 1012.29 1012.52 1012.74 1012.94 1013.13 1013.31 1013.48 1013.63 1013.76 1013.86 1013.94 1014.00 1014.04 1014.09 1014.14 1014.21 1014.28 1014.37 1014.47 1014.57 1014.67 1014.77 1014.87 1014.97 1015.07 1015.18
1006.71 1006.31 1005.95 1005.70 1005.59 1005.63 1005.86 1006.24 1006.75 1007.36 1008.01 1008.67 1009.30 1009.87 1010.38 1010.82 1011.20 1011.54 1011.85 1012.14 1012.42 1012.68 1012.93 1013.15 1013.34 1013.49 1013.60 1013.68 1013.73 1013.77 1013.81 1013.86 1013.93 1014.01 1014.11 1014.22 1014.34 1014.45 1014.57 1014.67 1014.77 1014.87 1014.96
1006.86 1006.47 1006.12 1005.84 1005.67 1005.64 1005.76 1006.02 1006.40 1006.87 1007.40 1007.95 1008.48 1009.00 1009.48 1009.92 1010.33 1010.71 1011.08 1011.45 1011.80 1012.13 1012.44 1012.71 1012.94 1013.13 1013.27 1013.37 1013.44 1013.50 1013.55 1013.61 1013.69 1013.79 1013.90 1014.03 1014.16 1014.28 1014.41 1014.52 1014.61 1014.70 1014.78
1007.20 1006.85 1006.52 1006.23 1006.02 1005.92 1005.93 1006.06 1006.29 1006.61 1006.98 1007.40 1007.83 1008.26 1008.68 1009.10 1009.51 1009.92 1010.33 1010.74 1011.14 1011.52 1011.88 1012.20 1012.47 1012.70 1012.87 1013.01 1013.11 1013.20 1013.28 1013.36 1013.46 1013.57 1013.70 1013.83 1013.97 1014.10 1014.22 1014.33 1014.42 1014.50 1014.56
1007.73 1007.45 1007.15 1006.87 1006.63 1006.46 1006.37 1006.36 1006.45 1006.61 1006.83 1007.10 1007.41 1007.74 1008.10 1008.47 1008.86 1009.26 1009.68 1010.11 1010.53 1010.94 1011.33 1011.68 1011.98 1012.24 1012.45 1012.62 1012.76 1012.88 1012.99 1013.10 1013.22 1013.34 1013.47 1013.60 1013.73 1013.84 1013.95 1014.04 1014.12 1014.19 1014.24
1008.42 1008.20 1007.94 1007.67 1007.42 1007.19 1007.01 1006.90 1006.86 1006.88 1006.96 1007.10 1007.29 1007.52 1007.80 1008.11 1008.46 1008.84 1009.24 1009.65 1010.07 1010.48 1010.87 1011.22 1011.54 1011.82 1012.06 1012.26 1012.43 1012.58 1012.72 1012.84 1012.96 1013.08 1013.20 1013.30 1013.40 1013.49 1013.56 1013.63 1013.69 1013.74 1013.79
Thickness
5794 5795 5795 5793 5790 5786 5783 5780 5776 5772 5770 5766 5763 5759 5756 5755 5754 5754 5752 5751 5748 5746 5744 5742 5741 5739 5736 5734 5732 5730 5728 5726 5726 5723 5721 5723 5725 5725 5725 5726 5726 5726 5726
5786 5787 5787 5787 5785 5782 5779 5776 5773 5770 5768 5765 5762 5759 5756 5753 5752 5750 5749 5748 5746 5744 5742 5740 5738 5736 5733 5731 5729 5727 5724 5723 5723 5719 5713 5710 5713 5718 5722 5722 5722 5722 5723
5781 5781 5781 5780 5779 5777 5776 5774 5770 5768 5766 5763 5759 5756 5751 5748 5746 5744 5744 5744 5743 5741 5739 5737 5735 5733 5730 5727 5726 5725 5722 5718 5719 5718 5713 5705 5702 5707 5714 5717 5718 5719 5719
5778 5777 5776 5774 5772 5773 5773 5770 5767 5765 5762 5760 5755 5751 5746 5742 5741 5741 5740 5740 5739 5738 5736 5735 5733 5730 5728 5725 5724 5722 5720 5717 5713 5714 5714 5712 5709 5703 5702 5708 5713 5715 5715
5774 5773 5773 5772 5770 5769 5768 5766 5763 5760 5758 5756 5753 5748 5744 5741 5739 5738 5736 5735 5735 5734 5733 5731 5729 5727 5725 5723 5721 5719 5717 5715 5712 5710 5709 5708 5707 5705 5700 5698 5704 5708 5711
5769 5769 5770 5769 5766 5765 5763 5760 5757 5754 5753 5751 5748 5745 5741 5739 5735 5733 5731 5730 5729 5729 5728 5727 5726 5724 5722 5719 5718 5716 5715 5713 5711 5709 5708 5705 5702 5700 5698 5696 5697 5699 5705
5761 5760 5760 5760 5760 5758 5756 5754 5750 5748 5747 5745 5743 5741 5739 5737 5733 5730 5728 5726 5724 5723 5723 5723 5721 5720 5718 5716 5715 5713 5711 5710 5708 5707 5706 5705 5703 5702 5699 5696 5694 5695 5699
5753 5754 5753 5753 5754 5753 5751 5748 5744 5742 5741 5740 5738 5737 5735 5733 5731 5728 5726 5723 5721 5720 5720 5718 5717 5716 5715 5713 5711 5709 5707 5706 5705 5704 5703 5702 5701 5700 5699 5696 5692 5689 5691
5745 5745 5745 5745 5745 5745 5744 5742 5739 5738 5737 5736 5734 5732 5731 5729 5727 5725 5723 5721 5719 5718 5716 5714 5713 5712 5710 5709 5707 5705 5703 5702 5701 5700 5700 5699 5698 5698 5697 5695 5693 5688 5684
5737 5737 5737 5737 5737 5737 5737 5737 5735 5734 5733 5731 5730 5728 5726 5724 5723 5720 5718 5717 5715 5714 5712 5710 5708 5707 5706 5705 5703 5701 5699 5697 5697 5696 5695 5694 5694 5693 5693 5692 5690 5688 5685
5728 5727 5727 5728 5728 5728 5729 5729 5728 5726 5725 5724 5723 5722 5720 5719 5718 5716 5714 5713 5711 5709 5707 5706 5704 5702 5701 5699 5697 5696 5694 5693 5692 5691 5690 5689 5689 5689 5688 5687 5686 5684 5683
5718 5719 5719 5719 5719 5718 5719 5720 5720 5719 5719 5718 5716 5715 5715 5713 5712 5711 5710 5708 5706 5705 5703 5701 5699 5697 5696 5694 5692 5691 5689 5688 5686 5685 5685 5684 5685 5683 5683 5682 5681 5680 5680
5708 5709 5710 5710 5711 5710 5711 5712 5712 5712 5712 5711 5709 5708 5707 5707 5706 5706 5704 5703 5702 5700 5698 5696 5694 5693 5691 5690 5688 5687 5685 5683 5682 5681 5680 5679 5679 5678 5677 5677 5676 5676 5676
5698 5699 5699 5701 5702 5702 5703 5704 5704 5705 5705 5704 5702 5701 5701 5701 5701 5700 5699 5698 5697 5695 5693 5691 5690 5688 5687 5685 5684 5682 5680 5678 5677 5677 5676 5675 5674 5673 5672 5671 5670 5670 5669
5688 5690 5690 5691 5693 5694 5695 5697 5697 5698 5698 5696 5696 5695 5695 5695 5695 5694 5693 5692 5691 5690 5688 5686 5684 5683 5682 5681 5679 5677 5675 5673 5672 5672 5671 5671 5671 5670 5669 5667 5665 5664 5662
5679 5681 5682 5683 5684 5687 5688 5690 5690 5691 5691 5689 5689 5689 5688 5688 5687 5687 5687 5686 5685 5684 5682 5680 5678 5677 5677 5676 5674 5672 5670 5668 5666 5666 5666 5666 5666 5665 5664 5663 5662 5660 5658
5670 5671 5673 5674 5675 5678 5681 5681 5682 5683 5684 5684 5683 5682 5682 5680 5681 5681 5680 5679 5678 5678 5676 5674 5673 5671 5671 5670 5669 5667 5664 5662 5661 5661 5660 5661 5661 5659 5658 5657 5656 5656 5655
5661 5662 5663 5664 5666 5669 5671 5673 5674 5674 5675 5675 5675 5675 5675 5674 5674 5673 5672 5672 5672 5671 5670 5668 5667 5666 5665 5665 5663 5662 5659 5657 5656 5656 5655 5654 5654 5654 5652 5650 5649 5648 5649
5652 5653 5654 5655 5657 5660 5663 5664 5664 5666 5667 5667 5667 5668 5668 5667 5667 5666 5665 5665 5665 5665 5664 5663 5662 5660 5659 5659 5658 5656 5654 5652 5651 5651 5651 5650 5649 5649 5647 5645 5642 5642 5643
5643 5644 5644 5645 5647 5650 5653 5654 5655 5657 5657 5658 5660 5662 5662 5661 5661 5660 5659 5660 5660 5659 5659 5657 5656 5654 5653 5653 5652 5651 5648 5646 5646 5646 5646 5646 5644 5643 5642 5640 5637 5636 5637
5635 5636 5636 5637 5638 5641 5644 5645 5646 5648 5650 5652 5653 5654 5654 5654 5654 5654 5653 5654 5653 5652 5652 5650 5649 5648 5647 5647 5647 5646 5644 5642 5640 5639 5639 5639 5639 5638 5636 5635 5634 5633 5632
5627 5628 5628 5629 5631 5634 5635 5636 5638 5642 5643 5645 5645 5646 5647 5648 5648 5647 5647 5647 5646 5644 5644 5642 5641 5641 5641 5641 5640 5640 5639 5638 5635 5633 5633 5633 5632 5630 5630 5629 5629 5628 5626
5621 5622 5621 5621 5623 5625 5627 5627 5631 5634 5636 5637 5637 5638 5639 5639 5641 5640 5640 5640 5639 5637 5636 5635 5633 5633 5634 5634 5634 5633 5633 5631 5629 5628 5627 5626 5625 5623 5622 5623 5622 5621 5619
5614 5615 5615 5615 5616 5618 5620 5622 5625 5627 5628 5629 5630 5631 5631 5632 5632 5633 5633 5632 5631 5630 5629 5628 5627 5627 5627 5627 5627 5626 5625 5624 5622 5620 5620 5619 5617 5616 5616 5615 5615 5613 5612
5607 5608 5607 5607 5609 5611 5614 5616 5618 5620 5621 5622 5623 5624 5625 5626 5625 5625 5625 5625 5626 5626 5625 5624 5624 5622 5621 5623 5622 5620 5618 5617 5615 5613 5611 5609 5608 5607 5607 5607 5607 5606 5605
5600 5599 5600 5601 5603 5605 5607 5609 5612 5614 5614 5614 5615 5616 5617 5618 5618 5617 5616 5618 5619 5620 5620 5620 5619 5619 5618 5617 5616 5615 5613 5611 5609 5605 5603 5601 5600 5600 5599 5599 5599 5599 5599